Location: Freemans Gardens
(41.6414°N, 83.6077°W)
Time: 03:15:34
(UTC+00:00)

Helios 1A Rocket - Pass Details

Date: 29 October 2020
Orbit: 562 x 587 km, 98.3° (Epoch: 26 November)

Event Time Altitude Azimuth Distance (km) Brightness Sun altitude
Rises 23:36:20 0° 152° (SSE) 2,793 6.2 -12.5°
Reaches altitude 10° 23:38:32 10° 146° (SE) 1,895 5.3 -12.9°
Maximum altitude 23:42:29 48° 72° (ENE) 766 3.1 -13.7°
Drops below altitude 10° 23:46:26 10° 358° (N) 1,896 5.5 -14.4°
Sets 23:48:38 0° 353° (N) 2,795 6.4 -14.8°
